Вернуться в каталог

STARLINK-37656

АктивенСвязьSSO
NORAD 69649·PAYLOAD·🇺🇸 United States

Запущен Jun 21, 2026 с Vandenberg Space Force Base

Loading…

Ближайшие Пролёты (ближайшие 24 часа)

TLE

СвежийSource: CelesTrak SupGP

Эпоха: Sep 14, 2026, 21:08 UTC

1 69649C 26143A   26257.88104167 -.00008560  00000+0 -26575-3 0  2572
2 69649  97.2838 301.2139 0000952  99.2517 332.8574 15.33441030    18

Отслеживайте STARLINK-37656 в реальном времени с AllMySat

Download on the App Store